• en Belgique
  • Liste des pays
  • À 7 jours
  • Température de l'eau
  • Carte satellitaire
  • Carte météo
  • Widgets météo
  • user-avatar
    Se connecter

    Météo par heure à Rostek

    Ce jour, 18 Juin, Lundi

    Heure Température Précipitation Vent Pression Humidité
    00:00 +19°C° 0 mm 1 m/s 745 mmHg 81%
    01:00 +19°C° 0 mm 1 m/s 745 mmHg 83%
    02:00 +18°C° 0,1 mm 1 m/s 745 mmHg 85%
    03:00 +18°C° 0,1 mm 1 m/s 745 mmHg 87%
    04:00 +16°C° 0,1 mm 2 m/s 745 mmHg 89%
    05:00 +18°C° 0 mm 2 m/s 745 mmHg 86%
    06:00 +19°C° 0 mm 2 m/s 746 mmHg 82%
    07:00 +21°C° 0 mm 2 m/s 746 mmHg 78%
    08:00 +22°C° 0,5 mm 3 m/s 746 mmHg 75%
    09:00 +22°C° 0,5 mm 3 m/s 746 mmHg 72%
    10:00 +24°C° 0,5 mm 3 m/s 746 mmHg 68%
    11:00 +25°C° 0,4 mm 3 m/s 746 mmHg 67%
    12:00 +25°C° 0,4 mm 4 m/s 746 mmHg 65%
    13:00 +25°C° 0,4 mm 4 m/s 747 mmHg 64%
    14:00 +23°C° 0,2 mm 4 m/s 747 mmHg 65%
    15:00 +23°C° 0,2 mm 4 m/s 747 mmHg 65%
    16:00 +22°C° 0,2 mm 4 m/s 746 mmHg 66%
    17:00 +21°C° 0 mm 4 m/s 747 mmHg 70%
    18:00 +19°C° 0 mm 3 m/s 747 mmHg 74%
    19:00 +18°C° 0 mm 3 m/s 747 mmHg 78%
    20:00 +16°C° 0 mm 2 m/s 747 mmHg 80%
    21:00 +15°C° 0 mm 2 m/s 747 mmHg 82%
    22:00 +13°C° 0 mm 1 m/s 747 mmHg 85%
    23:00 +13°C° 0 mm 1 m/s 747 mmHg 83%

    Demain, 19 Juin, Mardi

    Heure Température Précipitation Vent Pression Humidité
    00:00 +13°C° 0 mm 1 m/s 747 mmHg 82%
    01:00 +12°C° 0 mm 1 m/s 747 mmHg 81%
    02:00 +12°C° 0 mm 1 m/s 747 mmHg 80%
    03:00 +13°C° 0 mm 1 m/s 747 mmHg 79%
    04:00 +13°C° 0 mm 1 m/s 747 mmHg 79%
    05:00 +15°C° 0 mm 2 m/s 747 mmHg 75%
    06:00 +17°C° 0 mm 2 m/s 748 mmHg 71%
    07:00 +19°C° 0 mm 3 m/s 748 mmHg 67%
    08:00 +20°C° 0 mm 3 m/s 748 mmHg 65%
    09:00 +21°C° 0 mm 4 m/s 747 mmHg 63%
    10:00 +23°C° 0 mm 4 m/s 747 mmHg 62%
    11:00 +23°C° 0,1 mm 4 m/s 747 mmHg 63%
    12:00 +23°C° 0,1 mm 4 m/s 747 mmHg 65%
    13:00 +23°C° 0,1 mm 4 m/s 747 mmHg 67%
    14:00 +22°C° 0,1 mm 4 m/s 747 mmHg 70%
    15:00 +21°C° 0,1 mm 4 m/s 747 mmHg 73%
    16:00 +21°C° 0,1 mm 4 m/s 747 mmHg 76%
    17:00 +20°C° 0 mm 4 m/s 747 mmHg 78%
    18:00 +19°C° 0 mm 3 m/s 747 mmHg 81%
    19:00 +19°C° 0 mm 3 m/s 747 mmHg 84%
    20:00 +17°C° 0 mm 2 m/s 747 mmHg 87%
    21:00 +16°C° 0 mm 2 m/s 747 mmHg 90%
    22:00 +15°C° 0 mm 2 m/s 748 mmHg 93%
    23:00 +14°C° 0 mm 2 m/s 748 mmHg 93%

    Après-demain, 20 Juin, Mercredi

    Heure Température Précipitation Vent Pression Humidité
    00:00 +14°C° 0 mm 2 m/s 748 mmHg 94%
    01:00 +13°C° 0 mm 3 m/s 748 mmHg 94%
    02:00 +13°C° 0 mm 3 m/s 748 mmHg 95%
    03:00 +13°C° 0 mm 3 m/s 748 mmHg 96%
    04:00 +13°C° 0 mm 3 m/s 749 mmHg 96%
    05:00 +14°C° 0 mm 3 m/s 749 mmHg 88%
    06:00 +15°C° 0 mm 4 m/s 749 mmHg 80%
    07:00 +17°C° 0 mm 4 m/s 749 mmHg 71%
    08:00 +18°C° 0 mm 4 m/s 750 mmHg 67%
    09:00 +19°C° 0 mm 4 m/s 750 mmHg 63%
    10:00 +20°C° 0 mm 4 m/s 750 mmHg 60%
    11:00 +20°C° 0 mm 4 m/s 750 mmHg 58%
    12:00 +21°C° 0 mm 4 m/s 750 mmHg 57%
    13:00 +22°C° 0 mm 4 m/s 750 mmHg 56%
    14:00 +21°C° 0 mm 4 m/s 749 mmHg 57%
    15:00 +21°C° 0 mm 4 m/s 749 mmHg 58%
    16:00 +21°C° 0 mm 3 m/s 749 mmHg 60%
    17:00 +20°C° 0 mm 3 m/s 749 mmHg 66%
    18:00 +19°C° 0 mm 2 m/s 749 mmHg 72%
    19:00 +19°C° 0 mm 1 m/s 748 mmHg 77%
    20:00 +18°C° 0 mm 1 m/s 748 mmHg 81%
    21:00 +16°C° 0 mm 1 m/s 748 mmHg 84%
    22:00 +14°C° 0 mm 1 m/s 748 mmHg 87%
    23:00 +14°C° 0 mm 2 m/s 748 mmHg 87%

    21 Juin, Jeudi

    Heure Température Précipitation Vent Pression Humidité
    00:00 +14°C° 0 mm 2 m/s 748 mmHg 88%
    01:00 +14°C° 0 mm 2 m/s 747 mmHg 89%
    02:00 +13°C° 0 mm 3 m/s 747 mmHg 88%
    03:00 +13°C° 0 mm 3 m/s 747 mmHg 86%
    04:00 +13°C° 0 mm 3 m/s 746 mmHg 85%
    05:00 +16°C° 0 mm 3 m/s 746 mmHg 80%
    06:00 +18°C° 0 mm 3 m/s 746 mmHg 74%
    07:00 +20°C° 0 mm 4 m/s 745 mmHg 68%
    08:00 +22°C° 0 mm 4 m/s 745 mmHg 64%
    09:00 +23°C° 0 mm 4 m/s 744 mmHg 60%
    10:00 +26°C° 0 mm 5 m/s 744 mmHg 56%
    11:00 +26°C° 0 mm 5 m/s 743 mmHg 56%
    12:00 +27°C° 0 mm 5 m/s 742 mmHg 56%
    13:00 +27°C° 0 mm 5 m/s 741 mmHg 56%
    14:00 +27°C° 0,3 mm 4 m/s 741 mmHg 62%
    15:00 +26°C° 0,3 mm 4 m/s 740 mmHg 68%
    16:00 +26°C° 0,3 mm 4 m/s 739 mmHg 75%
    17:00 +25°C° 1,3 mm 4 m/s 738 mmHg 80%
    18:00 +22°C° 1,3 mm 4 m/s 738 mmHg 84%
    19:00 +21°C° 1,3 mm 3 m/s 737 mmHg 89%
    20:00 +20°C° 1,2 mm 4 m/s 737 mmHg 91%
    21:00 +19°C° 1,2 mm 4 m/s 737 mmHg 94%
    22:00 +18°C° 1,2 mm 4 m/s 737 mmHg 96%
    23:00 +16°C° 0,2 mm 5 m/s 737 mmHg 95%

    22 Juin, Vendredi

    Heure Température Précipitation Vent Pression Humidité
    00:00 +14°C° 0,2 mm 5 m/s 737 mmHg 94%
    01:00 +13°C° 0,2 mm 6 m/s 737 mmHg 92%
    02:00 +11°C° 0 mm 6 m/s 738 mmHg 93%
    03:00 +10°C° 0 mm 5 m/s 738 mmHg 93%
    04:00 +9°C° 0 mm 5 m/s 738 mmHg 93%
    05:00 +10°C° 0 mm 5 m/s 739 mmHg 88%
    06:00 +11°C° 0 mm 6 m/s 739 mmHg 83%
    07:00 +13°C° 0 mm 6 m/s 739 mmHg 78%
    08:00 +13°C° 0 mm 6 m/s 740 mmHg 72%
    09:00 +14°C° 0 mm 6 m/s 740 mmHg 66%
    10:00 +15°C° 0 mm 6 m/s 740 mmHg 61%
    11:00 +16°C° 0,1 mm 7 m/s 740 mmHg 58%
    12:00 +16°C° 0,1 mm 7 m/s 740 mmHg 56%
    13:00 +16°C° 0,1 mm 7 m/s 740 mmHg 53%
    14:00 +16°C° 0,1 mm 6 m/s 740 mmHg 55%
    15:00 +16°C° 0,1 mm 6 m/s 740 mmHg 56%
    16:00 +15°C° 0,1 mm 6 m/s 740 mmHg 58%
    17:00 +14°C° 0 mm 5 m/s 740 mmHg 63%
    18:00 +13°C° 0 mm 4 m/s 740 mmHg 69%
    19:00 +12°C° 0 mm 3 m/s 741 mmHg 75%
    20:00 +11°C° 0 mm 3 m/s 741 mmHg 78%
    21:00 +10°C° 0 mm 3 m/s 741 mmHg 81%
    22:00 +8°C° 0 mm 4 m/s 741 mmHg 84%
    23:00 +9°C° 0 mm 3 m/s 741 mmHg 87%

    23 Juin, Samedi

    Heure Température Précipitation Vent Pression Humidité
    00:00 +8°C° 0 mm 3 m/s 741 mmHg 90%
    01:00 +8°C° 0 mm 3 m/s 741 mmHg 93%
    02:00 +8°C° 0 mm 3 m/s 741 mmHg 94%
    03:00 +8°C° 0 mm 3 m/s 741 mmHg 94%
    04:00 +7°C° 0 mm 3 m/s 742 mmHg 95%
    05:00 +9°C° 0 mm 3 m/s 742 mmHg 89%
    06:00 +11°C° 0 mm 3 m/s 742 mmHg 83%
    07:00 +13°C° 0 mm 3 m/s 742 mmHg 77%
    08:00 +14°C° 0,2 mm 3 m/s 742 mmHg 72%
    09:00 +15°C° 0,2 mm 4 m/s 742 mmHg 67%
    10:00 +17°C° 0,2 mm 4 m/s 742 mmHg 63%
    11:00 +16°C° 0,5 mm 5 m/s 742 mmHg 66%
    12:00 +16°C° 0,5 mm 5 m/s 742 mmHg 69%
    13:00 +16°C° 0,5 mm 5 m/s 742 mmHg 72%
    14:00 +15°C° 0,4 mm 5 m/s 742 mmHg 76%
    15:00 +15°C° 0,4 mm 5 m/s 742 mmHg 80%
    16:00 +14°C° 0,4 mm 5 m/s 742 mmHg 84%
    17:00 +13°C° 0,4 mm 5 m/s 742 mmHg 87%
    18:00 +13°C° 0,4 mm 4 m/s 742 mmHg 90%
    19:00 +12°C° 0,4 mm 4 m/s 742 mmHg 93%
    20:00 +11°C° 0,1 mm 4 m/s 743 mmHg 95%
    21:00 +11°C° 0,1 mm 3 m/s 743 mmHg 96%
    22:00 +10°C° 0,1 mm 3 m/s 743 mmHg 97%
    23:00 +10°C° 0 mm 3 m/s 744 mmHg 97%
    Voir plus